STARLINK-4363 (53220 NORAD) Tracking and Keplerian Element Data

This shows tracking and keplerian element data for the satellite.

Feedback or suggestion? Click here.




ElementValue
Catalog53220
NameSTARLINK-4363
Epoch Orbit1035
Epoch Day270.14194264
Epoch Year2022
RAAN329.9653
Inclination97.6532
Eccentricity0.0001061
Argument of Perigee155.3259
Mean Anonmoly204.8016
Mean Motion15.01262215
Decay Rate-1.401E-05
L11 53220U 22084AH 22270.14194264 -.00001401 00000+0 -10450-3 0 9992
L22 53220 97.6532 329.9653 0001061 155.3259 204.8016 15.01262215 10356

Live tracking and technical data element details for STARLINK-4363 (NORAD 53220). STARLINK-4363 can be tracked NOW for your location showing map with azimuth and elevation plus other details from your city location.

Track the satellite on the map from your city or location and see movement details for azimuth, elevation, latitude, longitude, range, height, and movement on the map or in text.







IsCatalogInMostPopularTable: catalog: 53220, numindb: 7
Update: records affected: 1



GetName: 53220 STARLINK-4363

Hit Count: updated at: Fri, 30 Sep 2022 03:08:48 GMT